This is the latest recevied weather packets stored in our database for station/object K5KHP. If no packets are shown the sender has not sent any weather packets the latest 10 day(s).
| Time | Temp. | Humidity | Pressure | Rain* | Wind** | Luminosity | Snow |
|---|---|---|---|---|---|---|---|
| 1778209247 | 16.67° C | 85% | 1013.4 hPa | 0 mm | - | 0 W/m² | - |
| 1778208942 | 16.67° C | 85% | 1013.5 hPa | 0 mm | - | 0 W/m² | - |
| 1778208639 | 16.67° C | 84% | 1013.3 hPa | 0 mm | - | 0 W/m² | - |
| 1778208335 | 16.67° C | 84% | 1013.6 hPa | 0 mm | - | 1 W/m² | - |
| 1778208032 | 16.67° C | 84% | 1013.4 hPa | 0 mm | - | 3 W/m² | - |
| 1778207729 | 16.67° C | 84% | 1013.4 hPa | 0 mm | - | 6 W/m² | - |
| 1778207426 | 17.22° C | 84% | 1013.2 hPa | 0 mm | - | 8 W/m² | - |
| 1778207122 | 17.22° C | 82% | 1013.4 hPa | 0 mm | - | 10 W/m² | - |
| 1778206819 | 17.22° C | 82% | 1013.4 hPa | 0 mm | - | 14 W/m² | - |
| 1778206515 | 17.22° C | 81% | 1013.5 hPa | 0 mm | - | 16 W/m² | - |
| 1778206211 | 17.78° C | 81% | 1013.2 hPa | 0 mm | - | 18 W/m² | - |
| 1778205909 | 17.78° C | 81% | 1013.4 hPa | 0 mm | - | 21 W/m² | - |
| 1778205606 | 17.78° C | 80% | 1013.4 hPa | 0 mm | - | 25 W/m² | - |
| 1778205303 | 17.78° C | 80% | 1013.1 hPa | 0 mm | - | 27 W/m² | - |
| 1778205000 | 18.33° C | 79% | 1013.3 hPa | 0 mm | - | 29 W/m² | - |
| 1778204697 | 18.33° C | 77% | 1013.1 hPa | 0 mm | - | 31 W/m² | - |
| 1778204393 | 18.89° C | 76% | 1013.2 hPa | 0 mm | - | 34 W/m² | - |
| 1778204089 | 18.89° C | 75% | 1013.2 hPa | 0 mm | - | 37 W/m² | - |
| 1778203787 | 19.44° C | 73% | 1013.2 hPa | 0 mm | - | 79 W/m² | - |
| 1778203483 | 19.44° C | 74% | 1013.2 hPa | 0 mm | - | 89 W/m² | - |
| 1778203181 | 19.44° C | 73% | 1013.2 hPa | 0 mm | - | 95 W/m² | - |
| 1778202879 | 20° C | 72% | 1013.2 hPa | 0 mm | - | 107 W/m² | - |
| 1778202576 | 20° C | 73% | 1013.2 hPa | 0 mm | - | 119 W/m² | - |
| 1778202273 | 19.44° C | 72% | 1013.1 hPa | 0 mm | - | 127 W/m² | - |
| 1778201970 | 19.44° C | 72% | 1013.1 hPa | 0 mm | - | 135 W/m² | - |
* Rain latest hour (hover to see other rain measurements)
** Current wind speed in m/s (hover to see current wind gust speed)